CAPE
264 280 298 275 260 283 306 334 467 564 597 614 641 643 562 496 524 570 676 770 786 776 725 582 455 421 521 718 941 1204 1364 1494 1620 1711 1779 1807 1800 1770 1708 1631 1584 1529 1287 1087 1092 1132 1179 1255 1278 1254 1133 922 772 842 917 929 884 852 923 990 849 653 665 723 735 681 721 756 824 887 919 925 964 958 950 976 1028 972 846 662 462 407 376 60 0
0 11 170 190 252 259 200 3 404 535 598 626 586 578 591 592 603 708 770 897 835 734 612 548 477 403 369 506 726 892 1122 1387 1605 1726 1813 1816 1805 1784 1731 1650 1613 1602 1521 1235 1148 1115 1106 1140 1219 1215 1186 1139 1033 894 970 989 934 947 980 995 1037 1014 827 717 732 685 686 636 666 727 820 893 953 950 954 985 1117 1209 1107 946 690 481 342 0 0
258 45 30 0 0 0 0 0 0 286 552 658 660 664 651 630 619 567 524 549 531 464 419 408 394 345 388 467 531 699 857 1054 1317 1530 1666 1738 1773 1773 1718 1628 1564 1553 1577 1567 1314 1113 1078 1100 1155 1184 1211 1206 1204 1120 1046 1060 1043 1035 1047 1068 1080 1098 1060 959 881 829 790 793 771 772 796 824 861 907 957 1020 1183 1309 1290 1139 952 689 481 213 0
66 241 308 258 141 0 0 0 0 0 39 368 478 581 615 644 662 706 758 797 772 724 656 598 564 558 572 563 444 496 670 861 1046 1194 1418 1555 1656 1726 1678 1568 1510 1510 1561 1594 1572 1318 1091 1094 1139 1172 1224 1264 1233 1214 1122 1087 1124 1123 1084 1085 1118 1132 1093 1081 1090 1084 1121 1076 988 884 838 810 846 889 939 1033 1178 1300 1338 1270 1088 854 683 463 116
0 5 124 201 244 191 13 0 0 0 0 0 38 193 394 513 591 675 719 728 745 769 803 799 773 757 736 649 496 428 508 654 850 987 1205 1372 1488 1539 1503 1454 1448 1473 1506 1512 1499 1516 1373 1126 1133 1154 1213 1238 1244 1200 1125 1124 1156 1109 1051 1039 1039 1079 1114 1146 1161 1135 1139 1132 1096 1012 914 868 866 902 946 1020 1106 1179 1254 1343 1334 1136 881 706 453
0 0 0 0 96 134 152 61 0 0 0 0 0 0 11 150 418 508 569 612 662 757 748 692 638 632 658 736 747 662 520 504 599 779 878 1092 1199 1274 1318 1342 1376 1395 1416 1429 1425 1433 1496 1383 1158 1126 1140 1147 1169 1138 1028 1034 1106 1002 936 942 983 1038 1115 1159 1196 1190 1166 1166 1143 1149 1064 962 892 910 941 1007 1078 1124 1198 1270 1357 1346 1121 882 697
0 0 0 0 0 12 90 104 23 0 0 0 0 0 0 0 0 74 238 421 504 521 534 571 633 612 604 620 664 729 777 757 685 631 661 776 888 976 1058 1128 1193 1240 1268 1301 1298 1324 1398 1484 1350 1096 1008 989 998 971 863 866 899 916 890 859 914 1025 1103 1163 1170 1167 1167 1170 1190 1157 1126 1056 956 954 946 986 1066 1084 1160 1185 1212 1261 1204 1034 828
0 0 0 0 0 0 0 0 0 0 0 0 0 0 0 0 0 0 0 8 153 271 382 433 464 483 514 588 643 681 709 710 675 675 654 592 629 714 790 868 944 1006 1058 1094 1126 1163 1253 1385 1381 1228 1022 931 896 888 767 694 728 810 870 879 939 991 1061 1113 1146 1153 1154 1170 1170 1173 1108 1090 1024 1002 977 976 983 970 911 923 952 1006 1013 943 838
0 0 0 0 0 0 0 0 0 0 0 0 0 0 0 0 0 0 0 0 0 4 49 179 292 381 461 489 477 519 549 592 663 697 675 712 697 649 700 733 774 820 868 906 948 1009 1086 1216 1287 1204 1073 1018 930 822 734 648 678 780 845 879 933 970 1037 1075 1101 1104 1128 1135 1144 1107 1039 1003 1013 1012 928 899 903 910 840 762 778 887 1059 1095 1110
0 0 0 0 0 0 0 0 0 0 0 0 0 0 0 0 0 0 0 0 0 0 0 0 0 73 176 291 398 456 469 506 575 640 678 687 697 696 713 722 741 767 788 815 836 852 899 955 1039 1044 963 966 932 832 745 670 574 672 875 890 929 964 1020 1042 1054 1078 1104 1104 1106 1003 914 906 880 890 863 856 852 814 821 839 808 850 920 1002 970
0 0 0 0 0 0 0 0 0 0 0 0 0 0 0 0 0 0 0 0 0 0 0 0 0 0 1 13 76 155 297 457 540 586 610 649 665 681 694 715 718 704 712 730 759 789 801 820 858 872 837 823 825 783 730 696 656 628 718 814 904 961 1019 1017 1054 1094 1091 1105 1085 986 933 894 854 812 852 857 844 840 845 847 844 847 930 1056 1217
0 0 0 0 0 0 0 0 0 0 0 0 0 0 0 0 0 0 0 0 0 0 0 0 0 0 0 0 0 5 36 76 138 347 457 528 583 591 616 662 709 713 707 695 722 748 754 784 793 804 819 788 749 718 704 702 694 677 681 782 869 944 961 1019 1028 1042 1066 1077 1038 1018 978 980 964 861 835 810 847 829 834 878 957 900 771 850 949
0 0 0 0 0 0 0 0 0 0 0 0 0 0 0 0 0 0 0 0 0 0 0 0 0 0 0 0 0 0 0 0 0 0 90 197 291 393 402 442 536 637 684 713 716 727 743 760 780 804 807 829 801 734 706 710 731 745 749 718 857 948 1023 1075 1080 1016 1033 1039 1032 1018 979 993 914 900 865 880 787 813 865 976 1033 1040 910 758 794
0 0 0 0 0 0 0 0 0 0 0 0 0 0 0 0 0 0 0 0 0 0 0 0 0 0 0 0 0 0 0 0 0 0 0 0 32 53 141 201 251 320 490 620 691 739 770 774 770 779 803 822 801 807 800 809 805 786 778 762 770 867 1015 1107 1174 1213 1235 1219 1232 1194 1069 955 866 898 820 831 816 840 867 908 934 1002 1104 963 825
0 0 0 0 0 0 0 0 0 0 0 0 0 0 0 0 0 0 0 0 0 0 0 0 0 0 0 0 0 0 0 0 0 0 0 0 0 0 0 0 36 79 181 370 526 648 706 762 774 770 796 813 812 796 792 772 762 745 715 699 726 715 812 957 1152 1261 1320 1307 1278 1307 1361 1184 947 920 858 918 910 924 913 920 881 952 1159 1175 993
0 0 0 0 0 0 0 0 0 0 0 0 0 0 0 0 0 0 0 0 0 0 0 0 0 0 0 0 0 0 0 0 0 0 0 0 0 0 0 0 0 1 10 78 214 368 521 643 702 732 742 754 768 775 749 740 719 676 686 661 646 615 668 794 988 1155 1231 1190 1150 1200 1300 1323 1153 1020 943 1019 1063 1077 1044 943 939 1056 1049 1198 1156
0 0 0 0 0 0 0 0 0 0 0 2 2 2 2 0 0 0 0 0 0 0 0 0 0 0 0 0 0 0 0 0 0 0 0 0 0 0 1 1 2 2 3 4 37 117 272 465 566 633 679 685 717 747 754 782 735 709 702 663 622 585 563 687 809 899 1035 1154 1128 1092 1181 1259 1246 1108 1042 1095 1088 1104 1106 950 949 980 1033 1187 1225
0 0 0 0 0 0 0 0 0 3 6 7 10 11 10 8 5 3 2 1 0 0 0 0 0 0 0 0 0 0 0 0 0 0 0 0 0 0 0 0 1 2 2 3 5 14 56 148 352 519 605 668 740 755 776 800 757 758 745 685 644 602 608 673 668 634 780 946 1022 1106 1146 1133 1143 1022 1008 1047 1078 1079 1100 997 975 938 1040 1159 1264
0 0 0 0 0 0 0 0 2 6 12 15 19 16 12 11 12 12 11 9 7 5 5 4 3 1 0 0 0 0 0 0 0 0 0 0 0 0 0 0 1 0 1 2 4 9 12 30 87 215 408 564 673 711 723 736 647 683 712 677 606 597 634 670 619 574 602 619 646 647 576 601 693 806 929 1007 1009 1040 1090 1055 1041 977 1076 1202 1300
0 0 0 0 0 0 0 0 4 12 18 20 9 2 2 2 4 4 3 2 2 2 4 4 2 0 0 0 0 0 0 0 0 0 0 0 0 0 0 0 0 0 0 0 7 11 14 16 15 45 192 376 529 627 683 689 578 570 615 594 574 556 629 613 551 595 556 501 418 418 374 409 490 623 757 813 876 976 988 990 993 1038 1080 1130 1264
0 0 0 0 0 0 0 0 7 17 21 12 1 2 2 4 4 4 4 4 5 4 4 4 3 1 0 0 0 0 0 0 0 0 0 0 0 0 0 0 0 1 2 0 0 6 14 19 16 13 22 93 234 402 517 586 596 601 576 521 534 592 642 568 633 658 549 462 457 427 352 396 462 480 507 595 683 762 768 797 922 1010 1045 1036 1065
0 0 0 0 0 0 0 0 7 17 14 2 1 0 1 2 3 3 3 3 2 2 2 3 3 3 1 0 0 0 0 0 0 0 0 0 0 0 0 0 0 0 5 8 6 3 5 13 17 13 14 14 28 78 171 241 333 410 416 472 537 601 634 667 711 707 597 498 444 353 302 363 409 368 420 499 597 685 639 677 786 864 916 970 1029
0 0 0 0 0 0 1 3 6 6 4 4 2 1 0 0 1 2 1 2 2 2 2 2 2 2 0 0 0 0 0 0 0 0 0 2 2 1 0 0 0 0 1 5 8 10 4 5 8 10 10 6 6 8 0 0 0 23 78 188 298 405 520 575 627 676 654 552 405 317 280 323 352 395 461 474 477 543 622 598 649 766 889 958 972
0 0 0 0 0 0 4 4 2 1 2 2 1 0 0 0 1 2 2 3 2 2 1 2 2 2 1 0 0 0 0 0 0 0 0 0 2 3 1 0 0 0 0 0 3 6 9 9 5 6 11 10 2 0 0 0 0 0 0 0 86 205 282 331 396 452 499 535 508 364 316 320 328 342 379 415 510 532 538 596 597 598 802 889 854
0 0 0 0 0 0 1 0 2 1 1 1 0 1 1 2 2 2 3 3 2 2 2 2 2 2 2 1 0 0 0 1 2 0 0 0 0 3 4 1 0 0 0 0 0 0 0 0 0 0 0 2 2 0 0 0 0 0 0 0 0 5 129 156 211 282 374 444 466 407 298 266 331 386 417 430 511 481 365 408 503 480 569 722 730
0 0 0 0 0 0 1 1 3 1 2 1 1 2 2 3 3 2 2 3 3 2 2 2 2 2 2 2 2 2 3 4 4 5 4 1 1 1 2 3 1 0 0 0 0 0 0 0 0 0 0 0 2 0 0 0 0 5 12 30 46 54 73 99 120 147 174 264 376 358 348 359 371 416 506 571 652 533 359 352 454 447 417 492 614
0 0 0 0 0 1 1 2 3 2 4 2 1 1 2 2 3 3 3 2 2 2 2 2 3 2 2 2 2 1 2 1 2 6 8 9 6 2 2 2 2 1 0 0 0 0 0 0 0 0 0 0 0 0 0 0 0 0 2 13 27 36 48 61 87 102 116 135 169 222 275 329 352 369 372 511 641 621 805 411 391 469 465 374 489
0 0 0 0 0 0 1 2 3 3 4 2 2 1 1 2 1 1 2 2 2 2 2 3 2 2 3 2 2 2 1 2 2 4 12 5 0 2 9 6 2 1 0 0 0 0 0 0 0 0 0 0 0 0 2 0 0 0 1 2 4 10 17 28 55 84 94 118 155 197 278 378 527 367 387 485 570 807 954 589 427 473 493 386 386
0 0 0 0 0 0 0 1 3 4 4 3 2 2 0 1 1 1 2 3 4 4 3 1 2 2 2 2 2 3 2 2 2 1 0 0 0 0 2 9 19 2 0 0 0 0 0 0 0 0 1 0 0 4 5 4 3 2 2 3 4 5 5 16 29 39 78 145 184 234 344 484 516 464 425 546 673 870 752 516 469 477 518 333 298
0 0 0 0 0 0 0 1 4 4 3 4 4 2 4 2 2 0 1 0 0 0 0 0 0 0 0 0 2 4 4 2 0 0 0 0 0 0 1 1 4 3 1 1 3 5 4 2 1 2 9 12 10 6 5 5 2 2 2 1 3 6 4 1 1 9 38 113 152 257 377 486 478 442 522 579 653 683 535 456 466 540 550 259 309
0 0 0 0 0 0 0 0 1 3 3 3 3 3 2 1 3 0 0 0 0 0 0 1 1 1 0 0 0 0 0 0 0 0 0 0 0 0 0 0 2 2 1 0 0 0 6 27 29 21 10 10 8 12 8 11 8 8 13 10 4 4 4 2 0 0 14 79 150 221 297 383 452 472 527 551 421 447 415 341 447 514 484 283 354
0 0 0 0 0 0 0 0 1 2 2 2 3 2 1 1 0 2 1 0 0 0 1 1 0 0 0 0 0 0 0 0 0 0 0 0 0 0 0 0 0 0 0 0 0 0 2 9 22 38 39 37 31 34 46 51 48 48 47 43 28 9 4 4 0 0 1 44 117 137 178 279 338 411 540 536 471 370 345 366 477 557 438 334 400
0 0 0 0 0 0 0 0 0 1 2 1 3 3 3 2 1 0 0 3 1 0 0 0 0 0 0 0 0 0 0 0 0 0 0 0 0 0 0 0 0 0 0 0 0 0 1 2 4 19 37 35 29 36 30 35 36 40 56 62 57 34 13 5 0 0 22 20 91 114 137 180 276 438 570 617 413 307 334 396 382 488 502 371 446
0 0 0 0 0 0 0 0 0 0 0 3 2 3 3 1 1 1 2 1 0 0 0 0 0 0 0 0 0 0 0 0 0 0 0 0 0 0 0 0 0 0 0 0 0 0 0 0 0 0 0 3 9 15 20 36 63 73 67 67 75 81 56 26 12 14 30 102 144 151 170 236 452 634 696 617 488 366 358 375 412 464 589 532 593
0 0 0 0 0 0 0 0 0 0 0 0 1 0 1 2 3 0 2 2 3 3 2 1 0 0 0 0 0 0 0 0 0 0 0 0 0 0 0 0 0 0 0 0 0 0 0 0 0 0 0 0 0 0 3 11 26 52 91 120 125 106 115 93 84 96 180 265 287 267 241 372 551 562 489 480 445 412 424 450 506 524 470 660 668
0 0 0 0 0 0 0 0 0 0 0 0 0 0 0 0 0 2 2 2 3 2 3 2 0 0 0 0 0 0 0 0 0 0 0 0 0 0 0 0 0 0 0 2 1 0 0 0 0 0 0 0 0 0 1 9 26 45 75 123 131 158 191 169 176 215 297 367 417 448 403 406 104 230 397 357 365 394 412 506 512 455 523 611 687
0 0 0 0 0 0 0 0 0 0 0 0 0 0 0 0 0 0 0 1 2 3 5 3 0 0 0 0 0 0 0 0 1 0 0 0 0 2 6 4 2 3 2 7 10 9 4 1 0 0 4 9 2 0 0 2 14 33 32 64 149 198 212 244 237 214 300 353 412 450 441 474 403 532 508 472 360 337 353 373 423 430 452 521 606
0 0 0 0 0 0 0 0 0 0 0 0 0 0 0 0 0 0 0 0 0 3 4 5 4 1 1 1 2 0 0 0 2 0 0 0 0 0 6 8 3 2 1 1 1 2 4 8 12 14 7 5 5 1 1 0 1 20 45 67 96 124 169 214 254 313 383 480 504 511 586 655 646 540 437 442 389 365 330 137 366 423 420 538 603
0 0 0 0 0 0 0 0 0 0 0 0 0 0 0 0 0 0 0 0 0 0 3 4 4 1 0 1 1 2 0 0 1 0 0 0 0 0 0 0 2 5 5 4 2 1 1 1 2 3 4 7 10 12 12 5 1 6 33 88 94 160 158 197 216 246 428 601 661 664 686 749 739 660 504 437 387 272 321 351 416 417 429 464 510
0 0 0 0 0 0 0 0 0 0 0 0 0 0 0 0 0 0 0 0 0 0 0 3 1 2 1 0 0 0 1 1 2 2 1 1 2 1 0 2 1 1 1 1 5 5 3 2 3 2 2 3 2 3 2 1 4 11 17 57 123 189 223 246 223 287 240 689 806 822 841 813 761 662 562 566 492 450 528 552 562 520 438 402 500
0 0 0 0 0 0 0 0 0 0 0 0 0 0 0 0 0 0 0 0 0 0 0 0 1 1 2 0 1 0 1 1 1 1 0 1 1 1 2 3 3 4 3 3 1 4 6 6 5 1 1 0 5 7 9 3 1 0 0 17 142 251 266 207 128 309 683 831 851 870 896 876 802 746 649 602 590 640 620 575 554 496 495 511 525
0 0 0 0 0 0 0 0 0 0 0 0 0 0 0 0 0 0 0 0 0 0 0 0 0 0 0 2 1 0 1 1 1 0 0 0 1 2 2 2 3 4 4 3 4 5 2 4 5 1 0 0 1 6 14 8 6 8 6 3 0 247 194 159 298 468 698 785 786 802 751 695 790 706 664 694 687 622 566 526 522 511 470 494 414
0 0 0 0 0 0 0 0 0 0 0 0 0 0 0 0 0 0 0 0 0 0 0 0 0 0 0 1 0 0 1 1 0 0 0 1 2 1 2 2 1 2 4 4 3 3 4 4 2 4 3 1 1 0 0 1 10 39 34 5 70 138 194 251 327 567 659 705 688 616 618 645 709 791 812 769 757 717 675 472 344 362 220 372 412
0 0 0 0 0 0 0 0 0 0 0 0 0 0 0 0 0 0 0 0 0 0 0 0 0 0 0 0 0 0 1 1 0 0 0 0 1 1 2 2 2 2 2 2 3 4 3 3 2 2 2 3 5 5 3 0 0 0 20 23 130 109 4 301 588 735 799 710 621 584 627 794 743 768 910 839 763 751 585 532 490 523 448 342 68
0 0 0 0 0 0 0 0 0 0 0 0 0 0 0 0 0 0 0 0 0 0 0 0 0 0 0 0 0 0 0 0 0 1 1 1 0 0 2 3 3 2 2 3 2 3 2 1 2 2 2 2 3 3 4 4 0 22 91 145 168 209 463 609 612 544 453 499 601 701 783 800 817 778 804 582 468 366 481 230 219 266 127 72 38
0 0 0 0 0 0 0 0 0 0 0 0 0 0 0 0 0 0 0 0 0 0 0 0 0 0 0 0 0 0 0 0 0 1 1 1 2 1 1 1 1 2 2 3 2 2 2 2 2 2 2 2 2 2 2 1 1 0 5 66 62 136 250 286 248 359 381 437 373 456 623 659 686 697 518 190 15 9 114 134 65 25 10 4 5
0 0 0 0 0 0 0 0 0 0 0 0 0 0 0 0 0 0 0 0 0 0 0 0 0 0 0 0 0 0 0 0 0 1 2 2 2 2 1 1 0 1 1 2 2 2 2 2 2 2 2 2 2 2 2 2 1 1 1 1 0 0 0 0 54 67 31 173 318 252 214 374 306 306 266 189 110 34 85 96 71 40 8 5 0
0 0 0 0 0 0 0 0 0 0 0 0 0 0 0 0 0 0 0 0 0 0 0 0 0 0 0 0 0 0 0 0 0 0 1 1 2 3 6 4 1 0 0 2 3 4 3 2 2 2 2 2 1 2 1 1 1 1 1 1 0 0 0 0 0 4 2 16 32 113 156 180 253 192 131 109 72 38 29 26 30 28 9 2 2
0 0 0 0 0 0 0 0 0 0 0 0 0 0 0 0 0 0 0 0 0 0 0 0 0 0 0 0 0 0 0 0 0 0 0 0 0 1 2 2 7 10 9 7 6 4 2 2 2 5 2 2 2 2 2 2 2 1 1 1 0 0 0 0 0 0 0 0 0 1 44 40 27 51 58 33 19 9 1 2 0 0 0 1 2
0 0 0 0 0 0 0 0 0 0 0 0 0 0 0 0 0 0 0 0 0 0 0 0 0 0 0 0 0 0 0 0 0 0 0 0 0 0 0 0 0 1 7 7 7 7 5 4 6 5 4 2 3 3 3 2 2 2 1 1 0 0 0 0 0 0 0 0 0 0 0 0 0 0 0 0 0 0 0 0 0 0 0 0 0
0 0 0 0 0 0 0 0 0 0 0 0 0 0 0 0 0 0 0 0 0 0 0 0 0 0 0 0 0 0 0 0 0 0 0 0 0 0 0 0 0 0 0 0 2 5 3 2 2 2 3 4 3 2 3 2 2 2 0 0 0 0 0 0 0 0 0 0 0 0 0 0 0 0 0 0 0 0 0 0 0 0 0 0 0
Wind_Speed
52 54 54 53 54 55 50 45 40 39 38 39 40 41 41 43 43 40 41 37 36 34 33 33 33 34 35 35 37 39 38 37 38 38 38 37 38 36 35 35 34 34 35 35 35 35 34 32 29 27 29 27 26 27 28 28 27 24 24 24 24 26 28 26 23 18 23 26 28 25 24 24 18 16 16 16 18 19 22 23 25 26 26 nan nan
nan nan 53 51 53 53 51 nan 42 39 37 38 39 41 40 40 42 42 38 36 37 32 30 31 33 34 35 35 36 36 37 38 40 40 37 37 38 40 37 35 35 36 38 36 37 39 39 35 32 30 31 28 28 29 31 33 33 30 26 24 25 26 26 27 23 21 18 31 27 27 27 23 19 17 16 17 17 20 22 23 24 27 27 nan nan
52 nan nan nan nan nan nan nan nan 42 38 36 37 39 40 39 40 40 38 36 35 30 27 28 30 32 34 35 33 32 33 36 39 40 39 38 39 40 40 38 37 38 38 37 39 42 41 39 36 35 35 30 28 29 32 34 37 37 32 29 25 24 26 25 24 21 19 22 30 29 27 26 21 19 16 16 18 21 22 23 25 26 26 27 nan
nan 53 52 51 50 nan nan nan nan nan nan 41 39 38 39 40 40 38 36 35 31 28 26 27 27 27 29 30 31 30 30 32 35 37 38 39 40 40 42 41 40 39 39 39 42 44 42 41 39 40 39 34 30 31 32 35 38 39 40 36 30 27 26 27 24 22 24 21 30 29 30 29 23 22 20 18 19 20 21 21 23 25 26 26 25
nan nan 51 50 50 51 nan nan nan nan nan nan nan 42 39 39 40 39 38 33 29 27 27 27 26 25 24 24 27 28 28 29 31 33 36 37 37 39 42 43 42 41 40 41 43 44 42 40 39 42 43 38 35 33 33 33 36 38 41 42 39 33 30 29 26 26 25 23 26 32 32 30 28 28 25 21 18 19 21 22 23 24 25 24 23
nan nan nan nan nan 48 49 nan nan nan nan nan nan nan nan 39 38 40 39 33 29 27 26 27 26 24 22 21 22 24 25 27 27 29 32 35 36 36 39 40 41 42 42 42 43 44 43 39 38 43 44 41 37 35 33 30 33 35 38 41 42 40 35 32 30 30 28 24 26 29 34 32 32 29 28 24 22 21 22 21 21 22 23 21 21
nan nan nan nan nan nan nan 49 nan nan nan nan nan nan nan nan nan nan 38 34 31 29 28 26 27 25 23 23 22 23 24 26 26 28 30 34 37 37 36 35 37 40 41 41 43 44 43 41 40 43 43 41 37 36 35 33 34 33 35 37 41 42 39 37 35 34 32 29 29 29 29 30 32 30 31 27 21 23 26 26 21 22 21 20 19
nan nan nan nan nan nan nan nan nan nan nan nan nan nan nan nan nan nan nan nan 35 34 32 30 29 28 26 25 24 25 26 27 27 28 30 33 36 38 38 37 35 36 38 39 41 43 42 40 41 43 43 41 39 37 38 38 38 36 36 38 42 43 42 41 40 37 35 34 33 33 31 29 32 34 37 32 24 22 28 28 22 23 22 20 19
nan nan nan nan nan nan nan nan nan nan nan nan nan nan nan nan nan nan nan nan nan nan nan 34 31 29 28 27 26 27 28 27 29 30 32 34 37 39 41 42 40 38 38 39 39 39 39 40 41 42 42 39 36 37 39 42 44 40 39 42 43 44 43 44 43 41 39 37 35 37 36 33 32 34 35 33 29 26 31 29 22 24 24 20 18
nan nan nan nan nan nan nan nan nan nan nan nan nan nan nan nan nan nan nan nan nan nan nan nan nan nan 29 29 29 29 29 29 27 25 29 34 38 42 43 44 42 40 40 39 38 37 37 38 40 37 38 38 39 38 36 38 41 42 43 45 45 45 45 45 45 43 41 39 36 40 38 34 32 34 32 31 33 33 33 31 26 26 26 21 19
nan nan nan nan nan nan nan nan nan nan nan nan nan nan nan nan nan nan nan nan nan nan nan nan nan nan nan nan nan 28 29 29 24 22 21 23 29 35 37 38 38 38 39 39 38 38 39 39 41 41 41 41 41 38 36 35 36 36 37 42 43 44 45 45 45 44 43 41 38 40 39 33 32 35 33 34 38 34 32 34 32 30 27 26 21
nan nan nan nan nan nan nan nan nan nan nan nan nan nan nan nan nan nan nan nan nan nan nan nan nan nan nan nan nan nan nan nan 24 23 21 21 24 27 30 32 34 35 35 35 37 38 40 41 43 45 46 44 43 41 38 35 34 33 33 36 39 39 41 43 44 45 45 43 41 40 40 35 35 38 36 39 40 39 36 37 35 31 28 27 24
nan nan nan nan nan nan nan nan nan nan nan nan nan nan nan nan nan nan nan nan nan nan nan nan nan nan nan nan nan nan nan nan nan nan nan 24 24 27 30 29 30 30 30 31 32 35 38 41 43 44 47 42 41 41 41 39 37 32 31 33 36 38 37 37 39 42 46 45 43 41 41 39 38 38 40 43 47 43 40 37 37 34 30 28 29
nan nan nan nan nan nan nan nan nan nan nan nan nan nan nan nan nan nan nan nan nan nan nan nan nan nan nan nan nan nan nan nan nan nan nan nan nan nan 34 31 30 28 28 28 30 32 33 36 40 41 43 45 45 43 41 40 42 42 39 39 38 37 37 37 38 38 41 46 46 41 40 42 41 39 46 52 51 45 43 39 40 37 34 28 26
nan nan nan nan nan nan nan nan nan nan nan nan nan nan nan nan nan nan nan nan nan nan nan nan nan nan nan nan nan nan nan nan nan nan nan nan nan nan nan nan nan nan 29 28 28 29 30 31 34 36 39 42 45 44 43 42 42 43 42 41 39 40 40 41 43 44 44 46 47 44 41 42 42 42 53 52 49 47 46 44 43 40 37 37 41
nan nan nan nan nan nan nan nan nan nan nan nan nan nan nan nan nan nan nan nan nan nan nan nan nan nan nan nan nan nan nan nan nan nan nan nan nan nan nan nan nan nan nan nan 28 29 28 28 30 32 34 36 38 37 39 43 43 41 42 41 40 39 39 39 41 43 44 47 49 47 44 42 45 45 54 54 50 50 50 50 48 47 47 41 32
nan nan nan nan nan nan nan nan nan nan nan nan nan nan nan nan nan nan nan nan nan nan nan nan nan nan nan nan nan nan nan nan nan nan nan nan nan nan nan nan nan nan nan nan nan 29 29 27 26 28 29 31 32 32 35 39 39 39 39 38 38 39 36 39 39 38 40 43 45 45 41 38 42 45 52 53 53 55 60 54 46 49 49 42 36
nan nan nan nan nan nan nan nan nan nan nan nan nan nan nan nan nan nan nan nan nan nan nan nan nan nan nan nan nan nan nan nan nan nan nan nan nan nan nan nan nan nan nan nan nan nan nan 23 23 24 25 26 25 25 29 35 35 35 35 35 35 35 36 40 40 39 39 40 40 42 42 38 39 46 51 52 53 59 59 49 47 54 50 44 38
nan nan nan nan nan nan nan nan nan nan nan nan nan nan nan nan nan nan nan nan nan nan nan nan nan nan nan nan nan nan nan nan nan nan nan nan nan nan nan nan nan nan nan nan nan nan nan nan nan 23 23 23 21 23 26 33 31 34 34 35 35 35 37 41 37 37 42 42 40 41 44 42 42 47 53 53 53 54 51 46 54 56 50 46 41
nan nan nan nan nan nan nan nan nan nan nan nan nan nan nan nan nan nan nan nan nan nan nan nan nan nan nan nan nan nan nan nan nan nan nan nan nan nan nan nan nan nan nan nan nan nan nan nan nan nan 25 24 24 25 29 31 33 36 38 38 38 36 40 40 38 39 38 37 34 38 40 45 48 53 56 58 58 50 48 47 53 55 52 49 48
nan nan nan nan nan nan nan nan nan nan nan nan nan nan nan nan nan nan nan nan nan nan nan nan nan nan nan nan nan nan nan nan nan nan nan nan nan nan nan nan nan nan nan nan nan nan nan nan nan nan nan nan 30 29 31 35 38 40 40 41 41 40 43 44 41 39 38 37 37 39 43 48 52 54 56 55 58 52 48 47 50 51 52 53 53
nan nan nan nan nan nan nan nan nan nan nan nan nan nan nan nan nan nan nan nan nan nan nan nan nan nan nan nan nan nan nan nan nan nan nan nan nan nan nan nan nan nan nan nan nan nan nan nan nan nan nan nan nan nan 36 37 39 47 43 41 41 43 46 45 46 47 43 40 40 41 43 47 52 53 52 54 55 52 49 48 49 49 51 55 56
nan nan nan nan nan nan nan nan nan nan nan nan nan nan nan nan nan nan nan nan nan nan nan nan nan nan nan nan nan nan nan nan nan nan nan nan nan nan nan nan nan nan nan nan nan nan nan nan nan nan nan nan nan nan nan nan nan nan nan 44 42 43 48 50 49 49 46 44 43 41 42 44 46 48 50 50 52 52 50 51 51 51 52 53 54
nan nan nan nan nan nan nan nan nan nan nan nan nan nan nan nan nan nan nan nan nan nan nan nan nan nan nan nan nan nan nan nan nan nan nan nan nan nan nan nan nan nan nan nan nan nan nan nan nan nan nan nan nan nan nan nan nan nan nan nan nan 45 50 51 52 50 47 45 44 42 41 40 39 42 45 47 48 51 53 55 55 53 52 53 53
nan nan nan nan nan nan nan nan nan nan nan nan nan nan nan nan nan nan nan nan nan nan nan nan nan nan nan nan nan nan nan nan nan nan nan nan nan nan nan nan nan nan nan nan nan nan nan nan nan nan nan nan nan nan nan nan nan nan nan nan nan nan 56 56 55 54 50 47 44 41 40 38 36 37 41 45 47 51 56 60 59 56 55 54 54
nan nan nan nan nan nan nan nan nan nan nan nan nan nan nan nan nan nan nan nan nan nan nan nan nan nan nan nan nan nan nan nan nan nan nan nan nan nan nan nan nan nan nan nan nan nan nan nan nan nan nan nan nan nan nan nan nan nan nan nan nan nan nan nan 57 55 52 49 46 42 40 40 39 41 43 45 48 50 56 59 61 60 59 58 57
nan nan nan nan nan nan nan nan nan nan nan nan nan nan nan nan nan nan nan nan nan nan nan nan nan nan nan nan nan nan nan nan nan nan nan nan nan nan nan nan nan nan nan nan nan nan nan nan nan nan nan nan nan nan nan nan nan nan nan nan nan nan nan nan nan 57 55 52 49 46 43 41 41 43 44 46 46 50 56 58 61 62 63 61 60
nan nan nan nan nan nan nan nan nan nan nan nan nan nan nan nan nan nan nan nan nan nan nan nan nan nan nan nan nan nan nan nan nan nan nan nan nan nan nan nan nan nan nan nan nan nan nan nan nan nan nan nan nan nan nan nan nan nan nan nan nan nan nan nan nan nan nan 56 53 50 47 46 43 41 43 44 45 49 56 57 60 62 62 64 62
nan nan nan nan nan nan nan nan nan nan nan nan nan nan nan nan nan nan nan nan nan nan nan nan nan nan nan nan nan nan nan nan nan nan nan nan nan nan nan nan nan nan nan nan nan nan nan nan nan nan nan nan nan nan nan nan nan nan nan nan nan nan nan nan nan nan nan 60 56 53 51 50 47 45 46 45 46 49 55 55 57 60 63 62 61
nan nan nan nan nan nan nan nan nan nan nan nan nan nan nan nan nan nan nan nan nan nan nan nan nan nan nan nan nan nan nan nan nan nan nan nan nan nan nan nan nan nan nan nan nan nan nan nan nan nan nan nan nan nan nan nan nan nan nan nan nan nan nan nan nan nan nan 61 58 56 54 54 53 52 52 50 49 51 53 54 55 59 61 60 58
nan nan nan nan nan nan nan nan nan nan nan nan nan nan nan nan nan nan nan nan nan nan nan nan nan nan nan nan nan nan nan nan nan nan nan nan nan nan nan nan nan nan nan nan nan nan nan nan nan nan nan nan nan nan nan nan nan nan nan nan nan nan nan nan nan nan nan nan 61 58 57 57 57 57 57 56 53 52 54 53 52 56 55 56 55
nan nan nan nan nan nan nan nan nan nan nan nan nan nan nan nan nan nan nan nan nan nan nan nan nan nan nan nan nan nan nan nan nan nan nan nan nan nan nan nan nan nan nan nan nan nan nan nan nan nan nan nan nan nan nan nan nan nan nan nan nan nan nan nan nan nan nan nan 63 61 60 60 60 59 59 58 59 54 53 53 52 52 52 52 51
nan nan nan nan nan nan nan nan nan nan nan nan nan nan nan nan nan nan nan nan nan nan nan nan nan nan nan nan nan nan nan nan nan nan nan nan nan nan nan nan nan nan nan nan nan nan nan nan nan nan nan nan nan nan nan nan nan nan nan nan nan nan nan nan nan nan nan nan nan 64 64 62 61 60 62 60 57 55 53 52 52 52 52 51 51
nan nan nan nan nan nan nan nan nan nan nan nan nan nan nan nan nan nan nan nan nan nan nan nan nan nan nan nan nan nan nan nan nan nan nan nan nan nan nan nan nan nan nan nan nan nan nan nan nan nan nan nan nan nan nan nan nan nan nan nan nan nan nan nan nan nan nan 65 65 65 65 64 62 60 59 57 56 56 54 52 50 51 51 50 49
nan nan nan nan nan nan nan nan nan nan nan nan nan nan nan nan nan nan nan nan nan nan nan nan nan nan nan nan nan nan nan nan nan nan nan nan nan nan nan nan nan nan nan nan nan nan nan nan nan nan nan nan nan nan nan nan nan nan nan 66 65 65 66 nan nan nan 66 67 66 66 66 63 62 63 58 54 54 55 54 51 49 50 50 50 50
nan nan nan nan nan nan nan nan nan nan nan nan nan nan nan nan nan nan nan nan nan nan nan nan nan nan nan nan nan nan nan nan nan nan nan nan nan nan nan nan nan nan nan nan nan nan nan nan nan nan nan nan nan nan nan nan nan nan nan 68 68 68 69 70 71 69 68 67 68 66 66 62 58 57 57 52 49 52 53 50 51 53 53 52 53
nan nan nan nan nan nan nan nan nan nan nan nan nan nan nan nan nan nan nan nan nan nan nan nan nan nan nan nan nan nan nan nan nan nan nan nan nan nan nan nan nan nan nan nan nan nan nan nan nan nan nan nan nan nan nan nan nan nan nan nan 74 72 72 72 70 71 68 67 67 68 66 61 56 56 57 55 53 51 49 49 50 52 54 56 58
nan nan nan nan nan nan nan nan nan nan nan nan nan nan nan nan nan nan nan nan nan nan nan nan nan nan nan nan nan nan nan nan nan nan nan nan nan nan nan nan nan nan nan nan nan nan nan nan nan nan nan nan nan nan nan nan nan nan nan nan nan 71 68 68 67 64 64 64 64 66 67 61 58 59 59 54 52 50 49 50 48 47 51 54 56
nan nan nan nan nan nan nan nan nan nan nan nan nan nan nan nan nan nan nan nan nan nan nan nan nan nan nan nan nan nan nan nan nan nan nan nan nan nan nan nan nan nan nan nan nan nan nan nan nan nan nan nan nan nan nan nan nan nan nan nan nan 56 57 59 59 59 60 61 63 66 66 63 60 59 59 56 53 51 48 48 48 47 47 49 48
nan nan nan nan nan nan nan nan nan nan nan nan nan nan nan nan nan nan nan nan nan nan nan nan nan nan nan nan nan nan nan nan nan nan nan nan nan nan nan nan nan nan nan nan nan nan nan nan nan nan nan nan nan nan nan nan nan nan nan nan 32 36 40 43 46 53 58 60 59 60 61 61 60 59 59 58 55 52 49 49 51 51 50 49 49
nan nan nan nan nan nan nan nan nan nan nan nan nan nan nan nan nan nan nan nan nan nan nan nan nan nan nan nan nan nan nan nan nan nan nan nan nan nan nan nan nan nan nan nan nan nan nan nan nan nan nan nan nan nan nan nan nan nan nan nan 21 27 33 39 42 46 52 55 54 56 59 62 62 61 58 57 57 54 52 53 56 59 62 63 62
nan nan nan nan nan nan nan nan nan nan nan nan nan nan nan nan nan nan nan nan nan nan nan nan nan nan nan nan nan nan nan nan nan nan nan nan nan nan nan nan nan nan nan nan nan nan nan nan nan nan nan nan nan nan nan nan nan nan nan nan nan 31 35 39 44 49 52 54 57 59 61 62 63 64 64 64 62 60 59 59 58 58 60 63 65
nan nan nan nan nan nan nan nan nan nan nan nan nan nan nan nan nan nan nan nan nan nan nan nan nan nan nan nan nan nan nan nan nan nan nan nan nan nan nan nan nan nan nan nan nan nan nan nan nan nan nan nan nan nan nan nan nan nan nan nan nan 33 35 37 42 48 52 54 56 59 61 62 63 64 64 63 63 62 62 62 63 64 62 63 65
nan nan nan nan nan nan nan nan nan nan nan nan nan nan nan nan nan nan nan nan nan nan nan nan nan nan nan nan nan nan nan nan nan nan nan nan nan nan nan nan nan nan nan nan nan nan nan nan nan nan nan nan nan nan nan nan nan nan nan nan 27 32 nan 40 43 48 52 56 58 60 61 62 63 64 63 61 61 64 65 64 65 69 69 68 nan
nan nan nan nan nan nan nan nan nan nan nan nan nan nan nan nan nan nan nan nan nan nan nan nan nan nan nan nan nan nan nan nan nan nan nan nan nan nan nan nan nan nan nan nan nan nan nan nan nan nan nan nan nan nan nan nan nan nan nan 25 26 33 37 40 43 47 51 55 59 61 63 62 62 64 63 61 60 64 67 65 64 68 69 nan nan
nan nan nan nan nan nan nan nan nan nan nan nan nan nan nan nan nan nan nan nan nan nan nan nan nan nan nan nan nan nan nan nan nan nan nan nan nan nan nan nan nan nan nan nan nan nan nan nan nan nan nan nan nan nan nan nan nan nan nan nan nan 31 34 37 39 44 48 50 52 58 62 64 65 64 64 61 nan nan 68 67 nan nan nan nan nan
nan nan nan nan nan nan nan nan nan nan nan nan nan nan nan nan nan nan nan nan nan nan nan nan nan nan nan nan nan nan nan nan nan nan nan nan nan nan nan nan nan nan nan nan nan nan nan nan nan nan nan nan nan nan nan nan nan nan nan nan nan nan nan nan nan nan nan 44 46 50 57 61 63 64 61 58 63 nan nan nan nan nan nan nan nan
nan nan nan nan nan nan nan nan nan nan nan nan nan nan nan nan nan nan nan nan nan nan nan nan nan nan nan nan nan nan nan nan nan nan nan nan nan nan nan nan nan nan nan nan nan nan nan nan nan nan nan nan nan nan nan nan nan nan nan nan nan nan nan nan nan nan nan nan nan 48 53 57 59 61 61 60 nan nan nan nan nan nan nan nan nan
nan nan nan nan nan nan nan nan nan nan nan nan nan nan nan nan nan nan nan nan nan nan nan nan nan nan nan nan nan nan nan nan nan nan nan nan nan nan nan nan nan nan nan nan nan nan nan nan nan nan nan nan nan nan nan nan nan nan nan nan nan nan nan nan nan nan nan nan nan nan nan nan nan nan nan nan nan nan nan nan nan nan nan nan nan
nan nan nan nan nan nan nan nan nan nan nan nan nan nan nan nan nan nan nan nan nan nan nan nan nan nan nan nan nan nan nan nan nan nan nan nan nan nan nan nan nan nan nan nan nan nan nan nan nan nan nan nan nan nan nan nan nan nan nan nan nan nan nan nan nan nan nan nan nan nan nan nan nan nan nan nan nan nan nan nan nan nan nan nan nan
nan nan nan nan nan nan nan nan nan nan nan nan nan nan nan nan nan nan nan nan nan nan nan nan nan nan nan nan nan nan nan nan nan nan nan nan nan nan nan nan nan nan nan nan nan nan nan nan nan nan nan nan nan nan nan nan nan nan nan nan nan nan nan nan nan nan nan nan nan nan nan nan nan nan nan nan nan nan nan nan nan nan nan nan nan
Wind_Direction
239 242 238 233 231 233 237 247 253 252 251 251 250 250 247 243 243 242 241 244 247 253 261 260 253 247 242 240 242 244 247 250 252 252 252 251 253 256 257 259 262 259 260 264 265 266 268 267 265 263 261 261 264 266 266 266 265 267 271 277 281 285 288 288 295 293 287 287 284 286 286 283 287 299 301 303 307 315 322 319 320 321 322 nan nan
nan nan 235 234 233 232 234 nan 244 248 249 250 250 247 244 242 243 243 241 240 246 250 258 260 257 253 246 242 243 245 248 250 253 256 257 256 254 253 254 257 259 260 262 264 268 268 270 270 268 268 267 268 265 266 269 270 270 266 263 267 271 275 281 282 282 285 285 278 281 277 279 285 279 289 304 305 313 308 319 321 316 321 321 nan nan
237 nan nan nan nan nan nan nan nan 235 237 244 246 244 243 241 241 241 238 238 243 250 257 260 260 257 250 245 244 245 250 251 254 258 259 259 257 254 253 254 255 257 260 261 263 265 268 270 270 268 266 269 269 268 269 271 273 275 272 263 261 266 271 278 278 278 276 278 286 285 284 285 287 284 298 298 299 306 315 320 320 317 318 320 nan
nan 236 236 235 233 nan nan nan nan nan nan 235 237 237 239 240 240 239 238 239 242 247 254 254 256 258 253 248 247 248 251 253 257 260 260 260 259 257 254 252 252 254 257 258 259 261 265 268 269 270 268 269 269 268 270 272 273 275 277 274 267 261 261 266 273 272 271 271 279 287 284 284 282 275 279 286 296 303 310 310 313 319 318 319 321
nan nan 235 234 232 232 nan nan nan nan nan nan nan 232 233 235 238 238 238 239 242 245 248 251 252 254 252 247 245 248 252 257 260 261 259 259 260 259 257 255 254 254 255 257 258 260 262 265 269 270 269 267 265 266 270 278 275 275 277 278 274 269 265 266 269 272 271 272 275 277 278 280 276 274 279 285 291 299 300 308 314 318 317 317 314
nan nan nan nan nan 233 233 nan nan nan nan nan nan nan nan 236 240 241 241 242 246 249 249 249 252 252 251 247 244 246 250 256 262 262 259 258 259 261 260 259 258 256 255 255 257 258 258 259 261 265 267 267 266 266 268 275 277 276 277 275 274 273 274 272 273 275 274 272 270 273 273 278 274 275 280 282 283 290 294 299 298 304 308 313 319
nan nan nan nan nan nan nan 233 nan nan nan nan nan nan nan nan nan nan 237 240 242 243 245 250 254 254 251 251 248 248 251 255 259 261 258 255 257 259 260 260 261 258 255 255 255 256 256 254 253 258 262 264 264 265 266 267 268 274 277 277 273 273 275 274 274 276 276 271 267 269 272 274 278 279 276 280 281 282 290 287 293 299 302 310 316
nan nan nan nan nan nan nan nan nan nan nan nan nan nan nan nan nan nan nan nan 235 237 241 248 254 255 252 251 250 249 250 253 257 260 259 257 256 258 258 257 258 258 255 255 255 255 254 252 249 252 257 260 262 263 263 261 261 264 268 269 267 268 271 273 273 274 274 272 270 272 272 275 274 267 271 282 282 277 280 288 299 299 305 307 309
nan nan nan nan nan nan nan nan nan nan nan nan nan nan nan nan nan nan nan nan nan nan nan 241 246 250 251 250 248 249 250 252 256 261 262 260 257 257 258 257 260 261 256 254 255 254 251 249 248 249 254 257 263 263 262 262 260 261 265 269 269 268 266 269 272 274 273 274 274 274 273 275 279 281 282 286 291 290 286 288 284 285 287 295 299
nan nan nan nan nan nan nan nan nan nan nan nan nan nan nan nan nan nan nan nan nan nan nan nan nan nan 247 248 249 249 249 250 257 270 267 261 258 256 256 257 259 259 254 251 252 253 251 250 247 250 252 255 259 261 261 262 264 264 265 268 270 268 266 267 269 269 270 272 275 275 277 279 283 285 289 290 281 277 281 285 284 280 281 286 282
nan nan nan nan nan nan nan nan nan nan nan nan nan nan nan nan nan nan nan nan nan nan nan nan nan nan nan nan nan 247 246 248 257 264 264 264 256 253 253 253 254 253 251 251 251 252 252 252 249 248 249 251 256 259 257 258 261 266 270 271 271 271 268 268 267 268 269 268 267 271 274 277 282 283 286 286 283 285 283 280 278 278 282 281 277
nan nan nan nan nan nan nan nan nan nan nan nan nan nan nan nan nan nan nan nan nan nan nan nan nan nan nan nan nan nan nan nan 244 244 247 252 254 249 246 245 246 248 250 253 254 253 253 252 252 250 247 249 254 253 251 255 261 266 271 270 272 277 277 274 272 270 272 270 267 268 271 274 274 277 279 280 279 279 280 279 279 279 280 278 276
nan nan nan nan nan nan nan nan nan nan nan nan nan nan nan nan nan nan nan nan nan nan nan nan nan nan nan nan nan nan nan nan nan nan nan 241 247 250 245 241 241 244 250 256 259 258 257 253 251 251 247 249 250 247 245 251 258 263 266 266 267 274 277 279 280 277 274 273 270 268 270 270 271 273 276 278 276 281 279 278 275 274 276 276 270
nan nan nan nan nan nan nan nan nan nan nan nan nan nan nan nan nan nan nan nan nan nan nan nan nan nan nan nan nan nan nan nan nan nan nan nan nan nan 250 249 246 243 246 253 259 262 263 258 252 249 248 248 247 246 247 250 253 256 256 256 261 267 271 277 280 279 274 272 272 269 266 267 269 269 272 274 279 281 280 278 276 276 273 276 277
nan nan nan nan nan nan nan nan nan nan nan nan nan nan nan nan nan nan nan nan nan nan nan nan nan nan nan nan nan nan nan nan nan nan nan nan nan nan nan nan nan nan 249 250 253 259 262 260 254 248 245 246 247 249 249 250 251 253 254 256 263 267 271 274 273 270 268 266 268 270 266 265 266 265 267 273 278 280 282 281 282 281 277 265 253
nan nan nan nan nan nan nan nan nan nan nan nan nan nan nan nan nan nan nan nan nan nan nan nan nan nan nan nan nan nan nan nan nan nan nan nan nan nan nan nan nan nan nan nan 252 255 257 258 255 249 246 244 247 253 252 249 250 251 252 255 261 266 269 274 279 278 274 270 268 268 265 264 265 263 266 268 270 271 270 266 266 269 269 267 263
nan nan nan nan nan nan nan nan nan nan nan nan nan nan nan nan nan nan nan nan nan nan nan nan nan nan nan nan nan nan nan nan nan nan nan nan nan nan nan nan nan nan nan nan nan 252 255 256 254 251 249 245 246 251 252 252 247 249 250 252 258 263 267 272 278 282 281 277 273 270 265 260 262 264 267 274 271 269 267 269 272 273 271 269 263
nan nan nan nan nan nan nan nan nan nan nan nan nan nan nan nan nan nan nan nan nan nan nan nan nan nan nan nan nan nan nan nan nan nan nan nan nan nan nan nan nan nan nan nan nan nan nan 254 253 249 247 245 245 248 250 251 245 246 247 250 256 261 265 270 273 280 289 286 280 272 266 261 259 259 262 269 272 270 271 275 276 272 272 272 267
nan nan nan nan nan nan nan nan nan nan nan nan nan nan nan nan nan nan nan nan nan nan nan nan nan nan nan nan nan nan nan nan nan nan nan nan nan nan nan nan nan nan nan nan nan nan nan nan nan 249 243 238 239 241 248 251 245 246 248 252 257 261 265 270 275 278 278 278 275 270 261 258 255 257 259 262 266 269 271 273 270 274 275 273 269
nan nan nan nan nan nan nan nan nan nan nan nan nan nan nan nan nan nan nan nan nan nan nan nan nan nan nan nan nan nan nan nan nan nan nan nan nan nan nan nan nan nan nan nan nan nan nan nan nan nan 247 239 235 238 245 256 252 249 251 254 258 261 264 267 270 271 273 279 279 275 269 260 254 254 255 257 258 263 268 269 269 274 276 273 270
nan nan nan nan nan nan nan nan nan nan nan nan nan nan nan nan nan nan nan nan nan nan nan nan nan nan nan nan nan nan nan nan nan nan nan nan nan nan nan nan nan nan nan nan nan nan nan nan nan nan nan nan 247 243 244 249 255 254 255 257 260 260 260 260 263 270 269 272 273 272 267 261 254 252 254 258 260 262 263 266 268 272 275 274 271
nan nan nan nan nan nan nan nan nan nan nan nan nan nan nan nan nan nan nan nan nan nan nan nan nan nan nan nan nan nan nan nan nan nan nan nan nan nan nan nan nan nan nan nan nan nan nan nan nan nan nan nan nan nan 252 251 256 257 256 258 258 260 261 261 261 263 265 267 269 271 270 265 257 254 255 259 263 265 267 268 268 269 270 272 273
nan nan nan nan nan nan nan nan nan nan nan nan nan nan nan nan nan nan nan nan nan nan nan nan nan nan nan nan nan nan nan nan nan nan nan nan nan nan nan nan nan nan nan nan nan nan nan nan nan nan nan nan nan nan nan nan nan nan nan 260 258 258 259 260 262 263 264 266 269 271 272 267 259 255 258 260 261 265 265 266 267 266 265 268 272
nan nan nan nan nan nan nan nan nan nan nan nan nan nan nan nan nan nan nan nan nan nan nan nan nan nan nan nan nan nan nan nan nan nan nan nan nan nan nan nan nan nan nan nan nan nan nan nan nan nan nan nan nan nan nan nan nan nan nan nan nan 262 259 259 260 262 263 264 266 269 272 267 257 253 256 259 261 264 263 264 265 267 268 267 270
nan nan nan nan nan nan nan nan nan nan nan nan nan nan nan nan nan nan nan nan nan nan nan nan nan nan nan nan nan nan nan nan nan nan nan nan nan nan nan nan nan nan nan nan nan nan nan nan nan nan nan nan nan nan nan nan nan nan nan nan nan nan 260 258 259 260 261 263 264 267 270 267 258 252 253 257 260 262 261 260 262 263 264 265 267
nan nan nan nan nan nan nan nan nan nan nan nan nan nan nan nan nan nan nan nan nan nan nan nan nan nan nan nan nan nan nan nan nan nan nan nan nan nan nan nan nan nan nan nan nan nan nan nan nan nan nan nan nan nan nan nan nan nan nan nan nan nan nan nan 261 262 262 262 263 265 267 264 256 249 249 253 259 264 265 264 265 264 265 265 265
nan nan nan nan nan nan nan nan nan nan nan nan nan nan nan nan nan nan nan nan nan nan nan nan nan nan nan nan nan nan nan nan nan nan nan nan nan nan nan nan nan nan nan nan nan nan nan nan nan nan nan nan nan nan nan nan nan nan nan nan nan nan nan nan nan 263 263 262 261 261 262 262 256 251 251 254 260 264 266 266 266 265 265 265 265
nan nan nan nan nan nan nan nan nan nan nan nan nan nan nan nan nan nan nan nan nan nan nan nan nan nan nan nan nan nan nan nan nan nan nan nan nan nan nan nan nan nan nan nan nan nan nan nan nan nan nan nan nan nan nan nan nan nan nan nan nan nan nan nan nan nan nan 261 261 259 258 259 259 257 256 258 261 264 266 267 267 264 263 263 263
nan nan nan nan nan nan nan nan nan nan nan nan nan nan nan nan nan nan nan nan nan nan nan nan nan nan nan nan nan nan nan nan nan nan nan nan nan nan nan nan nan nan nan nan nan nan nan nan nan nan nan nan nan nan nan nan nan nan nan nan nan nan nan nan nan nan nan 261 261 260 259 258 259 259 259 259 262 265 267 268 267 265 262 261 261
nan nan nan nan nan nan nan nan nan nan nan nan nan nan nan nan nan nan nan nan nan nan nan nan nan nan nan nan nan nan nan nan nan nan nan nan nan nan nan nan nan nan nan nan nan nan nan nan nan nan nan nan nan nan nan nan nan nan nan nan nan nan nan nan nan nan nan 260 260 260 259 258 257 257 258 259 260 264 269 272 268 266 263 261 258
nan nan nan nan nan nan nan nan nan nan nan nan nan nan nan nan nan nan nan nan nan nan nan nan nan nan nan nan nan nan nan nan nan nan nan nan nan nan nan nan nan nan nan nan nan nan nan nan nan nan nan nan nan nan nan nan nan nan nan nan nan nan nan nan nan nan nan nan 258 258 258 258 257 257 258 259 260 263 267 269 267 264 262 258 257
nan nan nan nan nan nan nan nan nan nan nan nan nan nan nan nan nan nan nan nan nan nan nan nan nan nan nan nan nan nan nan nan nan nan nan nan nan nan nan nan nan nan nan nan nan nan nan nan nan nan nan nan nan nan nan nan nan nan nan nan nan nan nan nan nan nan nan nan 257 255 254 254 255 256 257 258 259 262 265 266 265 263 260 257 258
nan nan nan nan nan nan nan nan nan nan nan nan nan nan nan nan nan nan nan nan nan nan nan nan nan nan nan nan nan nan nan nan nan nan nan nan nan nan nan nan nan nan nan nan nan nan nan nan nan nan nan nan nan nan nan nan nan nan nan nan nan nan nan nan nan nan nan nan nan 255 253 252 252 253 255 258 261 262 264 265 265 263 258 256 254
nan nan nan nan nan nan nan nan nan nan nan nan nan nan nan nan nan nan nan nan nan nan nan nan nan nan nan nan nan nan nan nan nan nan nan nan nan nan nan nan nan nan nan nan nan nan nan nan nan nan nan nan nan nan nan nan nan nan nan nan nan nan nan nan nan nan nan 254 254 253 253 252 251 252 253 257 261 261 261 263 265 262 259 257 255
nan nan nan nan nan nan nan nan nan nan nan nan nan nan nan nan nan nan nan nan nan nan nan nan nan nan nan nan nan nan nan nan nan nan nan nan nan nan nan nan nan nan nan nan nan nan nan nan nan nan nan nan nan nan nan nan nan nan nan 260 260 260 259 nan nan nan 255 252 251 251 251 252 252 252 253 253 256 259 259 260 263 262 258 254 251
nan nan nan nan nan nan nan nan nan nan nan nan nan nan nan nan nan nan nan nan nan nan nan nan nan nan nan nan nan nan nan nan nan nan nan nan nan nan nan nan nan nan nan nan nan nan nan nan nan nan nan nan nan nan nan nan nan nan nan 259 257 256 256 255 254 254 253 251 248 248 249 249 251 251 251 250 252 255 255 256 258 258 255 249 248
nan nan nan nan nan nan nan nan nan nan nan nan nan nan nan nan nan nan nan nan nan nan nan nan nan nan nan nan nan nan nan nan nan nan nan nan nan nan nan nan nan nan nan nan nan nan nan nan nan nan nan nan nan nan nan nan nan nan nan nan 255 254 253 252 251 250 251 250 248 247 246 245 245 247 250 249 249 252 255 257 260 261 257 255 255
nan nan nan nan nan nan nan nan nan nan nan nan nan nan nan nan nan nan nan nan nan nan nan nan nan nan nan nan nan nan nan nan nan nan nan nan nan nan nan nan nan nan nan nan nan nan nan nan nan nan nan nan nan nan nan nan nan nan nan nan nan 252 252 249 248 249 250 249 248 246 245 243 241 243 246 248 249 249 251 254 260 264 262 261 260
nan nan nan nan nan nan nan nan nan nan nan nan nan nan nan nan nan nan nan nan nan nan nan nan nan nan nan nan nan nan nan nan nan nan nan nan nan nan nan nan nan nan nan nan nan nan nan nan nan nan nan nan nan nan nan nan nan nan nan nan nan 252 249 246 245 247 248 247 246 246 245 243 242 242 245 247 247 248 251 254 257 260 263 261 259
nan nan nan nan nan nan nan nan nan nan nan nan nan nan nan nan nan nan nan nan nan nan nan nan nan nan nan nan nan nan nan nan nan nan nan nan nan nan nan nan nan nan nan nan nan nan nan nan nan nan nan nan nan nan nan nan nan nan nan nan 259 249 241 237 239 242 244 245 244 245 247 246 244 244 245 246 246 248 251 254 255 257 261 264 262
nan nan nan nan nan nan nan nan nan nan nan nan nan nan nan nan nan nan nan nan nan nan nan nan nan nan nan nan nan nan nan nan nan nan nan nan nan nan nan nan nan nan nan nan nan nan nan nan nan nan nan nan nan nan nan nan nan nan nan nan 240 237 231 233 234 238 241 243 243 243 244 245 244 244 245 245 245 246 249 252 253 254 256 259 262
nan nan nan nan nan nan nan nan nan nan nan nan nan nan nan nan nan nan nan nan nan nan nan nan nan nan nan nan nan nan nan nan nan nan nan nan nan nan nan nan nan nan nan nan nan nan nan nan nan nan nan nan nan nan nan nan nan nan nan nan nan 229 231 232 235 237 238 238 237 238 239 241 242 242 243 244 244 245 247 249 251 253 255 257 257
nan nan nan nan nan nan nan nan nan nan nan nan nan nan nan nan nan nan nan nan nan nan nan nan nan nan nan nan nan nan nan nan nan nan nan nan nan nan nan nan nan nan nan nan nan nan nan nan nan nan nan nan nan nan nan nan nan nan nan nan nan 227 225 227 232 236 237 236 236 236 237 239 241 242 242 242 243 243 245 249 251 252 253 254 255
nan nan nan nan nan nan nan nan nan nan nan nan nan nan nan nan nan nan nan nan nan nan nan nan nan nan nan nan nan nan nan nan nan nan nan nan nan nan nan nan nan nan nan nan nan nan nan nan nan nan nan nan nan nan nan nan nan nan nan nan 239 233 nan 232 232 232 234 235 233 233 234 237 240 241 241 241 243 246 245 245 250 253 254 254 nan
nan nan nan nan nan nan nan nan nan nan nan nan nan nan nan nan nan nan nan nan nan nan nan nan nan nan nan nan nan nan nan nan nan nan nan nan nan nan nan nan nan nan nan nan nan nan nan nan nan nan nan nan nan nan nan nan nan nan nan 252 251 241 236 235 237 237 235 236 237 236 234 233 235 238 238 237 241 248 251 252 254 255 255 nan nan
nan nan nan nan nan nan nan nan nan nan nan nan nan nan nan nan nan nan nan nan nan nan nan nan nan nan nan nan nan nan nan nan nan nan nan nan nan nan nan nan nan nan nan nan nan nan nan nan nan nan nan nan nan nan nan nan nan nan nan nan nan 244 241 239 239 240 239 235 236 241 243 241 236 234 235 239 nan nan 250 250 nan nan nan nan nan
nan nan nan nan nan nan nan nan nan nan nan nan nan nan nan nan nan nan nan nan nan nan nan nan nan nan nan nan nan nan nan nan nan nan nan nan nan nan nan nan nan nan nan nan nan nan nan nan nan nan nan nan nan nan nan nan nan nan nan nan nan nan nan nan nan nan nan 235 234 240 244 246 246 245 241 241 244 nan nan nan nan nan nan nan nan
nan nan nan nan nan nan nan nan nan nan nan nan nan nan nan nan nan nan nan nan nan nan nan nan nan nan nan nan nan nan nan nan nan nan nan nan nan nan nan nan nan nan nan nan nan nan nan nan nan nan nan nan nan nan nan nan nan nan nan nan nan nan nan nan nan nan nan nan nan 239 243 246 248 249 248 246 nan nan nan nan nan nan nan nan nan
nan nan nan nan nan nan nan nan nan nan nan nan nan nan nan nan nan nan nan nan nan nan nan nan nan nan nan nan nan nan nan nan nan nan nan nan nan nan nan nan nan nan nan nan nan nan nan nan nan nan nan nan nan nan nan nan nan nan nan nan nan nan nan nan nan nan nan nan nan nan nan nan nan nan nan nan nan nan nan nan nan nan nan nan nan
nan nan nan nan nan nan nan nan nan nan nan nan nan nan nan nan nan nan nan nan nan nan nan nan nan nan nan nan nan nan nan nan nan nan nan nan nan nan nan nan nan nan nan nan nan nan nan nan nan nan nan nan nan nan nan nan nan nan nan nan nan nan nan nan nan nan nan nan nan nan nan nan nan nan nan nan nan nan nan nan nan nan nan nan nan
nan nan nan nan nan nan nan nan nan nan nan nan nan nan nan nan nan nan nan nan nan nan nan nan nan nan nan nan nan nan nan nan nan nan nan nan nan nan nan nan nan nan nan nan nan nan nan nan nan nan nan nan nan nan nan nan nan nan nan nan nan nan nan nan nan nan nan nan nan nan nan nan nan nan nan nan nan nan nan nan nan nan nan nan nan